This is the latest recevied weather packets stored in our database for station/object N7JP. If no packets are shown the sender has not sent any weather packets the latest 10 day(s).
| Time | Temp. | Humidity | Pressure | Rain* | Wind** | Luminosity | Snow |
|---|---|---|---|---|---|---|---|
| 1777493465 | 15° C | 65% | 1019.2 hPa | 0 mm | - | - | - |
| 1777492557 | 15° C | 68% | 1019.3 hPa | 0 mm | - | - | - |
| 1777491656 | 15° C | 68% | 1019.3 hPa | 0 mm | - | - | - |
| 1777490755 | 14.44° C | 69% | 1019.4 hPa | 0 mm | - | - | - |
| 1777489830 | 15° C | 69% | 1019.5 hPa | 0 mm | - | - | - |
| 1777488928 | 15° C | 70% | 1019.7 hPa | 0 mm | - | - | - |
| 1777488028 | 14.44° C | 77% | 1019.8 hPa | 0 mm | - | - | - |
| 1777487100 | 14.44° C | 77% | 1019.8 hPa | 0 mm | - | - | - |
| 1777486199 | 13.89° C | 77% | 1020 hPa | 0 mm | - | - | - |
| 1777485296 | 13.33° C | 79% | 1020.1 hPa | 0 mm | - | - | - |
| 1777484396 | 13.33° C | 79% | 1020.1 hPa | 0 mm | - | - | - |
| 1777483479 | 12.78° C | 79% | 1020.2 hPa | 0 mm | - | - | - |
| 1777482579 | 12.78° C | 80% | 1020.3 hPa | 0 mm | - | - | - |
| 1777481662 | 12.22° C | 82% | 1020.4 hPa | 0 mm | - | - | - |
| 1777480762 | 12.22° C | 82% | 1020.5 hPa | 0 mm | - | - | - |
| 1777479856 | 12.22° C | 82% | 1020.5 hPa | 0 mm | - | - | - |
| 1777478956 | 11.67° C | 85% | 1020.5 hPa | 0 mm | - | - | - |
| 1777478056 | 11.11° C | 88% | 1020.6 hPa | 0 mm | - | - | - |
| 1777477136 | 10.56° C | 89% | 1020.8 hPa | 0 mm | - | - | - |
| 1777476218 | 10° C | 91% | 1020.8 hPa | 0 mm | - | - | - |
| 1777475319 | 8.89° C | 89% | 1020.8 hPa | 0 mm | - | - | - |
| 1777474394 | 7.78° C | 87% | 1020.7 hPa | 0 mm | - | - | - |
| 1777473494 | 7.22° C | 87% | 1020.7 hPa | 0 mm | - | - | - |
| 1777472577 | 6.67° C | 87% | 1020.6 hPa | 0 mm | - | - | - |
| 1777471676 | 6.11° C | 88% | 1020.6 hPa | 0 mm | - | - | - |
* Rain latest hour (hover to see other rain measurements)
** Current wind speed in m/s (hover to see current wind gust speed)